Time,TemperatureF,DewpointF,PressureIn,WindDirection,WindDirectionDegrees,WindSpeedMPH,WindSpeedGustMPH,Humidity,HourlyPrecipIn,Conditions,Clouds,dailyrainin,SoftwareType,DateUTC
2013-01-04 00:00:00,37.3,29.8,30.34,NE,42,0.0,10.0,74,0.00,,---,0.00,VWS V14.01,2013-01-04 06:00:00,
2013-01-04 00:04:00,37.3,29.8,30.34,NNE,22,0.0,4.0,74,0.00,,---,0.00,VWS V14.01,2013-01-04 06:04:00,
2013-01-04 00:09:00,37.2,29.7,30.34,NNE,22,2.0,4.0,74,0.00,,---,0.00,VWS V14.01,2013-01-04 06:09:00,
2013-01-04 00:14:00,37.0,29.5,30.34,NE,43,3.0,4.0,74,0.00,,---,0.00,VWS V14.01,2013-01-04 06:14:00,
2013-01-04 00:15:00,37.0,29.5,30.34,NE,43,3.0,4.0,74,0.00,,---,0.00,VWS V14.01,2013-01-04 06:15:00,
2013-01-04 00:19:00,36.9,29.4,30.34,North,11,3.0,5.0,74,0.00,,---,0.00,VWS V14.01,2013-01-04 06:19:00,
2013-01-04 00:24:00,36.8,29.6,30.34,NE,36,4.0,5.0,75,0.00,,---,0.00,VWS V14.01,2013-01-04 06:24:00,
2013-01-04 00:29:00,36.6,29.4,30.34,NE,39,0.0,1.0,75,0.00,,---,0.00,VWS V14.01,2013-01-04 06:29:00,
2013-01-04 00:30:00,36.6,29.4,30.34,NE,39,1.0,5.0,75,0.00,,---,0.00,VWS V14.01,2013-01-04 06:30:00,
2013-01-04 00:34:00,36.5,29.3,30.34,NE,52,3.0,3.0,75,0.00,,---,0.00,VWS V14.01,2013-01-04 06:34:00,
2013-01-04 00:40:00,36.5,29.7,30.34,ENE,71,1.0,4.0,76,0.00,,---,0.00,VWS V14.01,2013-01-04 06:40:00,
2013-01-04 00:45:00,36.5,29.7,30.33,NE,48,3.0,3.0,76,0.00,,---,0.00,VWS V14.01,2013-01-04 06:45:00,
2013-01-04 00:50:00,36.5,30.0,30.33,NE,37,2.0,6.0,77,0.00,,---,0.00,VWS V14.01,2013-01-04 06:50:00,
2013-01-04 00:55:00,36.6,30.1,30.33,NNE,14,4.0,6.0,77,0.00,,---,0.00,VWS V14.01,2013-01-04 06:55:00,
2013-01-04 01:00:00,36.8,30.3,30.34,NNE,28,3.0,4.0,77,0.00,,---,0.00,VWS V14.01,2013-01-04 07:00:00,
2013-01-04 01:05:00,36.9,30.4,30.34,NNE,31,2.0,7.0,77,0.00,,---,0.00,VWS V14.01,2013-01-04 07:05:00,
2013-01-04 01:10:00,36.9,30.4,30.34,NE,40,3.0,7.0,77,0.00,,---,0.00,VWS V14.01,2013-01-04 07:10:00,
2013-01-04 01:15:00,36.9,30.4,30.33,NE,48,2.0,3.0,77,0.00,,---,0.00,VWS V14.01,2013-01-04 07:15:00,
2013-01-04 01:20:00,36.9,30.4,30.33,NE,55,3.0,5.0,77,0.00,,---,0.00,VWS V14.01,2013-01-04 07:20:00,
2013-01-04 01:25:00,36.9,30.4,30.33,NE,49,3.0,7.0,77,0.00,,---,0.00,VWS V14.01,2013-01-04 07:25:00,
2013-01-04 01:30:00,36.9,30.4,30.33,NE,53,5.0,7.0,77,0.00,,---,0.00,VWS V14.01,2013-01-04 07:30:00,
2013-01-04 01:35:00,36.9,30.4,30.33,NE,38,11.0,11.0,77,0.00,,---,0.00,VWS V14.01,2013-01-04 07:35:00,
2013-01-04 01:40:00,37.0,30.5,30.33,NE,36,1.0,11.0,77,0.00,,---,0.00,VWS V14.01,2013-01-04 07:40:00,
2013-01-04 01:45:00,37.0,30.5,30.32,NNE,22,4.0,7.0,77,0.00,,---,0.00,VWS V14.01,2013-01-04 07:45:00,
2013-01-04 01:50:00,37.2,30.4,30.32,NE,47,6.0,11.0,76,0.00,,---,0.00,VWS V14.01,2013-01-04 07:50:00,
2013-01-04 01:56:00,37.3,30.4,30.32,NNE,30,3.0,12.0,76,0.00,,---,0.00,VWS V14.01,2013-01-04 07:56:00,
2013-01-04 02:00:00,37.3,30.4,30.31,NE,38,3.0,12.0,76,0.00,,---,0.00,VWS V14.01,2013-01-04 08:00:00,
2013-01-04 02:01:00,37.2,30.4,30.31,NNE,20,4.0,6.0,76,0.00,,---,0.00,VWS V14.01,2013-01-04 08:01:00,
2013-01-04 02:06:00,37.3,30.1,30.31,ENE,71,8.0,13.0,75,0.00,,---,0.00,VWS V14.01,2013-01-04 08:06:00,
2013-01-04 02:11:00,37.5,30.0,30.31,NNE,33,3.0,13.0,74,0.00,,---,0.00,VWS V14.01,2013-01-04 08:11:00,
2013-01-04 02:15:00,37.3,29.8,30.31,NNE,32,0.0,13.0,74,0.00,,---,0.00,VWS V14.01,2013-01-04 08:15:00,
2013-01-04 02:16:00,37.3,29.8,30.31,NNE,18,4.0,7.0,74,0.00,,---,0.00,VWS V14.01,2013-01-04 08:16:00,
2013-01-04 02:21:00,37.2,29.7,30.31,NE,46,4.0,7.0,74,0.00,,---,0.00,VWS V14.01,2013-01-04 08:21:00,
2013-01-04 02:26:00,37.0,29.5,30.31,NE,51,0.0,7.0,74,0.00,,---,0.00,VWS V14.01,2013-01-04 08:26:00,
2013-01-04 02:30:00,37.0,29.5,30.33,NE,45,0.0,7.0,74,0.00,,---,0.00,VWS V14.01,2013-01-04 08:30:00,
2013-01-04 02:31:00,37.0,29.5,30.33,NE,46,1.0,3.0,74,0.00,,---,0.00,VWS V14.01,2013-01-04 08:31:00,
2013-01-04 02:36:00,37.0,29.5,30.33,ENE,57,3.0,3.0,74,0.00,,---,0.00,VWS V14.01,2013-01-04 08:36:00,
2013-01-04 02:41:00,36.9,29.4,30.33,NE,51,4.0,5.0,74,0.00,,---,0.00,VWS V14.01,2013-01-04 08:41:00,
2013-01-04 02:45:00,36.9,29.4,30.33,NE,47,0.0,5.0,74,0.00,,---,0.00,VWS V14.01,2013-01-04 08:45:00,
2013-01-04 02:46:00,36.8,29.3,30.33,NE,38,0.0,4.0,74,0.00,,---,0.00,VWS V14.01,2013-01-04 08:46:00,
2013-01-04 02:51:00,36.6,29.4,30.33,ENE,58,0.0,5.0,75,0.00,,---,0.00,VWS V14.01,2013-01-04 08:51:00,
2013-01-04 02:56:00,36.5,29.3,30.33,ENE,69,3.0,5.0,75,0.00,,---,0.00,VWS V14.01,2013-01-04 08:56:00,
2013-01-04 03:00:00,36.3,29.5,30.31,ENE,60,3.0,5.0,76,0.00,,---,0.00,VWS V14.01,2013-01-04 09:00:00,
2013-01-04 03:02:00,36.3,29.5,30.31,ENE,62,0.0,3.0,76,0.00,,---,0.00,VWS V14.01,2013-01-04 09:02:00,
2013-01-04 03:07:00,36.2,29.4,30.31,ENE,74,0.0,4.0,76,0.00,,---,0.00,VWS V14.01,2013-01-04 09:07:00,
2013-01-04 03:12:00,36.0,29.2,30.31,NE,44,2.0,4.0,76,0.00,,---,0.00,VWS V14.01,2013-01-04 09:12:00,
2013-01-04 03:15:00,36.0,29.2,30.31,NE,45,0.0,4.0,76,0.00,,---,0.00,VWS V14.01,2013-01-04 09:15:00,
2013-01-04 03:17:00,36.0,29.5,30.31,NE,53,1.0,4.0,77,0.00,,---,0.00,VWS V14.01,2013-01-04 09:17:00,
2013-01-04 03:22:00,35.8,29.3,30.31,NE,48,3.0,6.0,77,0.00,,---,0.00,VWS V14.01,2013-01-04 09:22:00,
2013-01-04 03:27:00,35.8,29.3,30.31,NNE,14,1.0,6.0,77,0.00,,---,0.00,VWS V14.01,2013-01-04 09:27:00,
2013-01-04 03:30:00,35.8,29.3,30.32,NNE,14,3.0,6.0,77,0.00,,---,0.00,VWS V14.01,2013-01-04 09:30:00,
2013-01-04 03:32:00,35.8,29.3,30.32,NNE,17,3.0,4.0,77,0.00,,---,0.00,VWS V14.01,2013-01-04 09:32:00,
2013-01-04 03:37:00,35.6,29.4,30.32,NNE,22,1.0,4.0,78,0.00,,---,0.00,VWS V14.01,2013-01-04 09:37:00,
2013-01-04 03:42:00,35.5,29.3,30.32,ENE,65,0.0,5.0,78,0.00,,---,0.00,VWS V14.01,2013-01-04 09:42:00,
2013-01-04 03:45:00,35.3,29.1,30.32,ENE,65,0.0,5.0,78,0.00,,---,0.00,VWS V14.01,2013-01-04 09:45:00,
2013-01-04 03:47:00,35.3,29.1,30.32,ENE,61,1.0,3.0,78,0.00,,---,0.00,VWS V14.01,2013-01-04 09:47:00,
2013-01-04 03:52:00,35.2,29.4,30.32,NE,52,0.0,6.0,79,0.00,,---,0.00,VWS V14.01,2013-01-04 09:52:00,
2013-01-04 03:57:00,35.0,29.2,30.32,NE,38,3.0,6.0,79,0.00,,---,0.00,VWS V14.01,2013-01-04 09:57:00,
2013-01-04 04:00:00,35.0,29.2,30.32,NE,55,4.0,6.0,79,0.00,,---,0.00,VWS V14.01,2013-01-04 10:00:00,
2013-01-04 04:02:00,35.0,29.5,30.32,NE,48,3.0,5.0,80,0.00,,---,0.00,VWS V14.01,2013-01-04 10:02:00,
2013-01-04 04:08:00,35.0,29.5,30.32,NNE,30,6.0,7.0,80,0.00,,---,0.00,VWS V14.01,2013-01-04 10:08:00,
2013-01-04 04:13:00,35.2,29.7,30.32,NNE,14,4.0,9.0,80,0.00,,---,0.00,VWS V14.01,2013-01-04 10:13:00,
2013-01-04 04:15:00,35.3,29.8,30.32,NNE,20,6.0,9.0,80,0.00,,---,0.00,VWS V14.01,2013-01-04 10:15:00,
2013-01-04 04:18:00,35.3,29.5,30.32,NNE,27,5.0,6.0,79,0.00,,---,0.00,VWS V14.01,2013-01-04 10:18:00,
2013-01-04 04:23:00,35.3,29.5,30.32,NNE,24,3.0,8.0,79,0.00,,---,0.00,VWS V14.01,2013-01-04 10:23:00,
2013-01-04 04:28:00,35.3,29.5,30.32,NE,35,4.0,8.0,79,0.00,,---,0.00,VWS V14.01,2013-01-04 10:28:00,
2013-01-04 04:30:00,35.3,29.5,30.32,NE,37,5.0,8.0,79,0.00,,---,0.00,VWS V14.01,2013-01-04 10:30:00,
2013-01-04 04:33:00,35.2,29.4,30.32,NNE,27,3.0,9.0,79,0.00,,---,0.00,VWS V14.01,2013-01-04 10:33:00,
2013-01-04 04:38:00,35.0,29.5,30.32,NNE,32,3.0,9.0,80,0.00,,---,0.00,VWS V14.01,2013-01-04 10:38:00,
2013-01-04 04:43:00,35.0,29.5,30.32,NE,49,0.0,9.0,80,0.00,,---,0.00,VWS V14.01,2013-01-04 10:43:00,
2013-01-04 04:45:00,35.0,29.5,30.32,NNE,26,3.0,9.0,80,0.00,,---,0.00,VWS V14.01,2013-01-04 10:45:00,
2013-01-04 04:48:00,34.9,29.4,30.32,NNE,26,0.0,6.0,80,0.00,,---,0.00,VWS V14.01,2013-01-04 10:48:00,
2013-01-04 04:53:00,34.9,29.4,30.32,NNE,26,0.0,6.0,80,0.00,,---,0.00,VWS V14.01,2013-01-04 10:53:00,
2013-01-04 04:58:00,34.7,29.2,30.32,North,360,1.0,6.0,80,0.00,,---,0.00,VWS V14.01,2013-01-04 10:58:00,
2013-01-04 05:00:00,34.7,29.2,30.32,NNE,32,4.0,8.0,80,0.00,,---,0.00,VWS V14.01,2013-01-04 11:00:00,
2013-01-04 05:03:00,34.9,29.4,30.32,NNE,14,6.0,9.0,80,0.00,,---,0.00,VWS V14.01,2013-01-04 11:03:00,
2013-01-04 05:08:00,34.9,29.4,30.32,NE,38,3.0,11.0,80,0.00,,---,0.00,VWS V14.01,2013-01-04 11:08:00,
2013-01-04 05:13:00,34.9,29.4,30.33,NE,38,3.0,11.0,80,0.00,,---,0.00,VWS V14.01,2013-01-04 11:13:00,
2013-01-04 05:15:00,34.9,29.4,30.33,NE,39,3.0,11.0,80,0.00,,---,0.00,VWS V14.01,2013-01-04 11:15:00,
2013-01-04 05:18:00,34.9,29.4,30.33,NNE,31,5.0,11.0,80,0.00,,---,0.00,VWS V14.01,2013-01-04 11:18:00,
2013-01-04 05:23:00,34.9,29.4,30.33,NE,34,4.0,11.0,80,0.00,,---,0.00,VWS V14.01,2013-01-04 11:23:00,
2013-01-04 05:28:00,34.9,29.4,30.33,NE,48,2.0,11.0,80,0.00,,---,0.00,VWS V14.01,2013-01-04 11:28:00,
2013-01-04 05:30:00,34.9,29.4,30.33,NE,45,3.0,11.0,80,0.00,,---,0.00,VWS V14.01,2013-01-04 11:30:00,
2013-01-04 05:34:00,34.9,29.4,30.33,NNE,14,5.0,9.0,80,0.00,,---,0.00,VWS V14.01,2013-01-04 11:34:00,
2013-01-04 05:39:00,34.9,29.4,30.33,NE,44,4.0,10.0,80,0.00,,---,0.00,VWS V14.01,2013-01-04 11:39:00,
2013-01-04 05:44:00,34.9,29.4,30.33,NNE,17,4.0,10.0,80,0.00,,---,0.00,VWS V14.01,2013-01-04 11:44:00,
2013-01-04 05:45:00,34.9,29.4,30.33,NNE,21,3.0,10.0,80,0.00,,---,0.00,VWS V14.01,2013-01-04 11:45:00,
2013-01-04 05:49:00,34.7,29.5,30.33,NNE,15,3.0,7.0,81,0.00,,---,0.00,VWS V14.01,2013-01-04 11:49:00,
2013-01-04 05:54:00,34.7,29.5,30.33,NNE,19,6.0,7.0,81,0.00,,---,0.00,VWS V14.01,2013-01-04 11:54:00,
2013-01-04 05:59:00,34.7,29.5,30.33,NE,38,5.0,7.0,81,0.00,,---,0.00,VWS V14.01,2013-01-04 11:59:00,
2013-01-04 06:00:00,34.7,29.5,30.33,NNE,20,5.0,7.0,81,0.00,,---,0.00,VWS V14.01,2013-01-04 12:00:00,
2013-01-04 06:04:00,34.7,29.5,30.33,NNE,15,6.0,9.0,81,0.00,,---,0.00,VWS V14.01,2013-01-04 12:04:00,
2013-01-04 06:09:00,34.7,29.5,30.33,NNE,26,4.0,10.0,81,0.00,,---,0.00,VWS V14.01,2013-01-04 12:09:00,
2013-01-04 06:14:00,34.9,29.4,30.35,ENE,70,1.0,10.0,80,0.00,,---,0.00,VWS V14.01,2013-01-04 12:14:00,
2013-01-04 06:15:00,34.9,29.4,30.35,ENE,70,1.0,10.0,80,0.00,,---,0.00,VWS V14.01,2013-01-04 12:15:00,
2013-01-04 06:19:00,34.9,29.4,30.35,North,360,0.0,6.0,80,0.00,,---,0.00,VWS V14.01,2013-01-04 12:19:00,
2013-01-04 06:25:00,34.9,29.4,30.35,NE,53,0.0,6.0,80,0.00,,---,0.00,VWS V14.01,2013-01-04 12:25:00,
2013-01-04 06:30:00,34.9,29.4,30.36,NE,42,3.0,4.0,80,0.00,,---,0.00,VWS V14.01,2013-01-04 12:30:00,
2013-01-04 06:35:00,34.7,29.2,30.36,NE,35,3.0,6.0,80,0.00,,---,0.00,VWS V14.01,2013-01-04 12:35:00,
2013-01-04 06:40:00,34.7,29.2,30.36,NE,36,4.0,6.0,80,0.00,,---,0.00,VWS V14.01,2013-01-04 12:40:00,
2013-01-04 06:45:00,34.7,29.2,30.36,NE,41,0.0,0.0,80,0.00,,---,0.00,VWS V14.01,2013-01-04 12:45:00,
2013-01-04 06:50:00,34.6,29.1,30.36,NNE,25,0.0,5.0,80,0.00,,---,0.00,VWS V14.01,2013-01-04 12:50:00,
2013-01-04 06:55:00,34.6,29.1,30.36,NE,38,0.0,5.0,80,0.00,,---,0.00,VWS V14.01,2013-01-04 12:55:00,
2013-01-04 07:00:00,34.4,28.9,30.38,NNE,19,0.0,4.0,80,0.00,,---,0.00,VWS V14.01,2013-01-04 13:00:00,
2013-01-04 07:05:00,34.3,28.8,30.38,NNE,19,0.0,4.0,80,0.00,,---,0.00,VWS V14.01,2013-01-04 13:05:00,
2013-01-04 07:10:00,34.1,28.6,30.38,NNE,19,2.0,4.0,80,0.00,,---,0.00,VWS V14.01,2013-01-04 13:10:00,
2013-01-04 07:15:00,34.0,28.5,30.38,NNE,19,0.0,2.0,80,0.00,,---,0.00,VWS V14.01,2013-01-04 13:15:00,
2013-01-04 07:21:00,34.0,28.8,30.38,NNE,19,1.0,2.0,81,0.00,,---,0.00,VWS V14.01,2013-01-04 13:21:00,
2013-01-04 07:26:00,34.0,28.8,30.38,NNE,19,0.0,0.0,81,0.00,,---,0.00,VWS V14.01,2013-01-04 13:26:00,
2013-01-04 07:30:00,34.1,28.9,30.38,NNE,19,1.0,2.0,81,0.00,,---,0.00,VWS V14.01,2013-01-04 13:30:00,
2013-01-04 07:31:00,34.1,28.9,30.38,NNE,19,2.0,2.0,81,0.00,,---,0.00,VWS V14.01,2013-01-04 13:31:00,
2013-01-04 07:36:00,34.3,29.1,30.38,NE,51,3.0,5.0,81,0.00,,---,0.00,VWS V14.01,2013-01-04 13:36:00,
2013-01-04 07:41:00,34.6,29.4,30.38,ENE,65,1.0,5.0,81,0.00,,---,0.00,VWS V14.01,2013-01-04 13:41:00,
2013-01-04 07:45:00,34.9,29.7,30.38,NNE,32,1.0,5.0,81,0.00,,---,0.00,VWS V14.01,2013-01-04 13:45:00,
2013-01-04 07:46:00,34.9,29.4,30.38,NNE,23,2.0,4.0,80,0.00,,---,0.00,VWS V14.01,2013-01-04 13:46:00,
2013-01-04 07:51:00,35.2,29.7,30.38,ENE,76,2.0,7.0,80,0.00,,---,0.00,VWS V14.01,2013-01-04 13:51:00,
2013-01-04 07:56:00,35.6,30.0,30.38,NE,55,5.0,7.0,80,0.00,,---,0.00,VWS V14.01,2013-01-04 13:56:00,
2013-01-04 08:00:00,35.8,29.9,30.38,NE,35,3.0,7.0,79,0.00,,---,0.00,VWS V14.01,2013-01-04 14:00:00,
2013-01-04 08:01:00,36.0,30.1,30.38,NE,50,3.0,5.0,79,0.00,,---,0.00,VWS V14.01,2013-01-04 14:01:00,
2013-01-04 08:06:00,36.5,30.3,30.38,NE,42,6.0,8.0,78,0.00,,---,0.00,VWS V14.01,2013-01-04 14:06:00,
2013-01-04 08:12:00,36.9,30.4,30.38,East,80,0.0,8.0,77,0.00,,---,0.00,VWS V14.01,2013-01-04 14:12:00,
2013-01-04 08:15:00,37.2,30.3,30.38,North,9,3.0,8.0,76,0.00,,---,0.00,VWS V14.01,2013-01-04 14:15:00,
2013-01-04 08:17:00,37.3,30.1,30.38,NNE,25,2.0,5.0,75,0.00,,---,0.00,VWS V14.01,2013-01-04 14:17:00,
2013-01-04 08:22:00,37.5,30.0,30.38,ENE,64,3.0,6.0,74,0.00,,---,0.00,VWS V14.01,2013-01-04 14:22:00,
2013-01-04 08:27:00,37.8,29.9,30.38,NE,36,1.0,6.0,73,0.00,,---,0.00,VWS V14.01,2013-01-04 14:27:00,
2013-01-04 08:30:00,37.9,30.4,30.38,North,5,3.0,6.0,74,0.00,,---,0.00,VWS V14.01,2013-01-04 14:30:00,
2013-01-04 08:32:00,38.0,30.5,30.38,NE,51,0.0,6.0,74,0.00,,---,0.00,VWS V14.01,2013-01-04 14:32:00,
2013-01-04 08:37:00,38.8,30.9,30.38,NE,36,2.0,9.0,73,0.00,,---,0.00,VWS V14.01,2013-01-04 14:37:00,
2013-01-04 08:42:00,39.2,30.2,30.38,North,360,4.0,10.0,70,0.00,,---,0.00,VWS V14.01,2013-01-04 14:42:00,
2013-01-04 08:45:00,39.3,30.0,30.38,NNE,26,2.0,10.0,69,0.00,,---,0.00,VWS V14.01,2013-01-04 14:45:00,
2013-01-04 08:47:00,39.6,30.3,30.38,NNE,32,0.0,11.0,69,0.00,,---,0.00,VWS V14.01,2013-01-04 14:47:00,
2013-01-04 08:52:00,39.9,30.2,30.38,North,5,3.0,11.0,68,0.00,,---,0.00,VWS V14.01,2013-01-04 14:52:00,
2013-01-04 08:57:00,40.3,30.2,30.38,NE,34,0.0,11.0,67,0.00,,---,0.00,VWS V14.01,2013-01-04 14:57:00,
2013-01-04 09:00:00,40.6,30.5,30.39,East,85,0.0,11.0,67,0.00,,---,0.00,VWS V14.01,2013-01-04 15:00:00,
2013-01-04 09:02:00,40.8,30.0,30.39,NE,54,2.0,6.0,65,0.00,,---,0.00,VWS V14.01,2013-01-04 15:02:00,
2013-01-04 09:07:00,41.3,30.1,30.39,NE,37,4.0,6.0,64,0.00,,---,0.00,VWS V14.01,2013-01-04 15:07:00,
2013-01-04 09:12:00,41.9,29.9,30.39,NE,45,4.0,7.0,62,0.00,,---,0.00,VWS V14.01,2013-01-04 15:12:00,
2013-01-04 09:15:00,42.1,30.0,30.41,NNE,15,4.0,7.0,62,0.00,,---,0.00,VWS V14.01,2013-01-04 15:15:00,
2013-01-04 09:17:00,42.3,29.8,30.41,ENE,75,3.0,7.0,61,0.00,,---,0.00,VWS V14.01,2013-01-04 15:17:00,
2013-01-04 09:22:00,42.8,29.9,30.41,NE,49,2.0,7.0,60,0.00,,---,0.00,VWS V14.01,2013-01-04 15:22:00,
2013-01-04 09:27:00,43.1,29.8,30.41,ENE,72,1.0,7.0,59,0.00,,---,0.00,VWS V14.01,2013-01-04 15:27:00,
2013-01-04 09:30:00,43.1,29.3,30.39,East,79,2.0,7.0,58,0.00,,---,0.00,VWS V14.01,2013-01-04 15:30:00,
2013-01-04 09:33:00,43.1,28.9,30.39,ESE,103,3.0,9.0,57,0.00,,---,0.00,VWS V14.01,2013-01-04 15:33:00,
2013-01-04 09:38:00,43.2,28.6,30.39,NNE,33,2.0,9.0,56,0.00,,---,0.00,VWS V14.01,2013-01-04 15:38:00,
2013-01-04 09:43:00,43.5,29.3,30.39,NNE,19,2.0,9.0,57,0.00,,---,0.00,VWS V14.01,2013-01-04 15:43:00,
2013-01-04 09:45:00,43.5,29.3,30.41,NNE,31,0.0,9.0,57,0.00,,---,0.00,VWS V14.01,2013-01-04 15:45:00,
2013-01-04 09:48:00,43.8,30.0,30.41,NE,42,3.0,4.0,58,0.00,,---,0.00,VWS V14.01,2013-01-04 15:48:00,
2013-01-04 09:53:00,44.1,28.5,30.41,NNE,22,0.0,6.0,54,0.00,,---,0.00,VWS V14.01,2013-01-04 15:53:00,
2013-01-04 09:58:00,44.3,29.6,30.41,East,95,0.0,6.0,56,0.00,,---,0.00,VWS V14.01,2013-01-04 15:58:00,
2013-01-04 10:00:00,44.3,29.2,30.41,East,97,0.0,6.0,55,0.00,,---,0.00,VWS V14.01,2013-01-04 16:00:00,
2013-01-04 10:03:00,44.5,28.9,30.41,ENE,77,4.0,5.0,54,0.00,,---,0.00,VWS V14.01,2013-01-04 16:03:00,
2013-01-04 10:08:00,44.6,28.5,30.41,ENE,61,4.0,5.0,53,0.00,,---,0.00,VWS V14.01,2013-01-04 16:08:00,
2013-01-04 10:13:00,45.1,29.0,30.41,NNE,29,6.0,7.0,53,0.00,,---,0.00,VWS V14.01,2013-01-04 16:13:00,
2013-01-04 10:15:00,45.1,29.5,30.41,NNE,19,4.0,7.0,54,0.00,,---,0.00,VWS V14.01,2013-01-04 16:15:00,
2013-01-04 10:18:00,45.4,29.7,30.41,NNE,24,0.0,9.0,54,0.00,,---,0.00,VWS V14.01,2013-01-04 16:18:00,
2013-01-04 10:23:00,45.7,29.6,30.41,NE,37,3.0,9.0,53,0.00,,---,0.00,VWS V14.01,2013-01-04 16:23:00,
2013-01-04 10:28:00,45.8,29.7,30.41,NNE,12,5.0,9.0,53,0.00,,---,0.00,VWS V14.01,2013-01-04 16:28:00,
2013-01-04 10:30:00,45.8,29.7,30.41,North,11,3.0,9.0,53,0.00,,---,0.00,VWS V14.01,2013-01-04 16:30:00,
2013-01-04 10:33:00,46.0,29.4,30.41,NNE,23,7.0,8.0,52,0.00,,---,0.00,VWS V14.01,2013-01-04 16:33:00,
2013-01-04 10:38:00,46.0,29.4,30.41,North,355,2.0,9.0,52,0.00,,---,0.00,VWS V14.01,2013-01-04 16:38:00,
2013-01-04 10:43:00,46.1,29.5,30.42,NNW,340,2.0,10.0,52,0.00,,---,0.00,VWS V14.01,2013-01-04 16:43:00,
2013-01-04 10:45:00,46.1,29.0,30.42,North,350,3.0,10.0,51,0.00,,---,0.00,VWS V14.01,2013-01-04 16:45:00,
2013-01-04 10:49:00,46.5,30.3,30.42,North,9,6.0,10.0,53,0.00,,---,0.00,VWS V14.01,2013-01-04 16:49:00,
2013-01-04 10:54:00,46.8,28.7,30.42,NE,44,3.0,10.0,49,0.00,,---,0.00,VWS V14.01,2013-01-04 16:54:00,
2013-01-04 10:59:00,47.6,30.4,30.42,North,355,8.0,11.0,51,0.00,,---,0.00,VWS V14.01,2013-01-04 16:59:00,
2013-01-04 11:00:00,47.6,29.9,30.42,NE,34,5.0,11.0,50,0.00,,---,0.00,VWS V14.01,2013-01-04 17:00:00,
2013-01-04 11:04:00,48.0,28.8,30.42,NE,50,2.0,9.0,47,0.00,,---,0.00,VWS V14.01,2013-01-04 17:04:00,
2013-01-04 11:09:00,48.3,30.0,30.42,NNW,342,0.0,9.0,49,0.00,,---,0.00,VWS V14.01,2013-01-04 17:09:00,
2013-01-04 11:14:00,48.8,31.0,30.41,North,355,12.0,12.0,50,0.00,,---,0.00,VWS V14.01,2013-01-04 17:14:00,
2013-01-04 11:15:00,48.8,31.0,30.41,NNE,17,12.0,12.0,50,0.00,,---,0.00,VWS V14.01,2013-01-04 17:15:00,
2013-01-04 11:19:00,48.5,29.2,30.41,ENE,66,7.0,12.0,47,0.00,,---,0.00,VWS V14.01,2013-01-04 17:19:00,
2013-01-04 11:24:00,48.5,30.2,30.41,NNE,16,4.0,12.0,49,0.00,,---,0.00,VWS V14.01,2013-01-04 17:24:00,
2013-01-04 11:29:00,48.8,29.0,30.39,ENE,75,1.0,12.0,46,0.00,,---,0.00,VWS V14.01,2013-01-04 17:29:00,
2013-01-04 11:30:00,48.8,29.0,30.39,ENE,75,1.0,12.0,46,0.00,,---,0.00,VWS V14.01,2013-01-04 17:30:00,
2013-01-04 11:34:00,49.2,30.9,30.39,NE,52,3.0,10.0,49,0.00,,---,0.00,VWS V14.01,2013-01-04 17:34:00,
2013-01-04 11:39:00,49.4,29.5,30.39,ESE,110,0.0,11.0,46,0.00,,---,0.00,VWS V14.01,2013-01-04 17:39:00,
2013-01-04 11:44:00,49.5,29.6,30.38,NE,40,1.0,3.0,46,0.00,,---,0.00,VWS V14.01,2013-01-04 17:44:00,
2013-01-04 11:45:00,49.5,29.6,30.38,NE,34,3.0,11.0,46,0.00,,---,0.00,VWS V14.01,2013-01-04 17:45:00,
2013-01-04 11:50:00,49.8,29.9,30.38,ENE,74,0.0,4.0,46,0.00,,---,0.00,VWS V14.01,2013-01-04 17:50:00,
2013-01-04 11:55:00,49.8,29.9,30.38,East,86,0.0,6.0,46,0.00,,---,0.00,VWS V14.01,2013-01-04 17:55:00,
2013-01-04 12:00:00,50.4,29.9,30.36,NE,36,0.0,2.0,45,0.00,,---,0.00,VWS V14.01,2013-01-04 18:00:00,
2013-01-04 12:05:00,50.8,30.2,30.36,NNE,12,1.0,9.0,45,0.00,,---,0.00,VWS V14.01,2013-01-04 18:05:00,
2013-01-04 12:10:00,51.6,31.0,30.36,NNE,28,7.0,9.0,45,0.00,,---,0.00,VWS V14.01,2013-01-04 18:10:00,
2013-01-04 12:15:00,51.7,30.5,30.36,NNE,24,4.0,6.0,44,0.00,,---,0.00,VWS V14.01,2013-01-04 18:15:00,
2013-01-04 12:20:00,51.9,30.7,30.36,East,83,4.0,6.0,44,0.00,,---,0.00,VWS V14.01,2013-01-04 18:20:00,
2013-01-04 12:25:00,51.6,30.4,30.36,ENE,67,0.0,6.0,44,0.00,,---,0.00,VWS V14.01,2013-01-04 18:25:00,
2013-01-04 12:30:00,52.2,30.4,30.34,NW,316,3.0,5.0,43,0.00,,---,0.00,VWS V14.01,2013-01-04 18:30:00,
2013-01-04 12:36:00,52.2,31.0,30.34,NW,317,2.0,5.0,44,0.00,,---,0.00,VWS V14.01,2013-01-04 18:36:00,
2013-01-04 12:41:00,52.3,30.5,30.34,North,350,7.0,7.0,43,0.00,,---,0.00,VWS V14.01,2013-01-04 18:41:00,
2013-01-04 12:45:00,52.5,30.7,30.34,NW,316,5.0,7.0,43,0.00,,---,0.00,VWS V14.01,2013-01-04 18:45:00,
2013-01-04 12:46:00,52.6,29.0,30.34,North,355,3.0,5.0,40,0.00,,---,0.00,VWS V14.01,2013-01-04 18:46:00,
2013-01-04 12:51:00,53.1,28.2,30.34,NNE,33,2.0,5.0,38,0.00,,---,0.00,VWS V14.01,2013-01-04 18:51:00,
2013-01-04 12:56:00,53.5,30.4,30.34,NNW,341,5.0,8.0,41,0.00,,---,0.00,VWS V14.01,2013-01-04 18:56:00,
2013-01-04 13:00:00,53.6,31.1,30.33,NNE,26,1.0,8.0,42,0.00,,---,0.00,VWS V14.01,2013-01-04 19:00:00,
2013-01-04 13:01:00,53.6,31.1,30.33,North,10,3.0,5.0,42,0.00,,---,0.00,VWS V14.01,2013-01-04 19:01:00,
2013-01-04 13:06:00,53.8,28.8,30.33,NNW,344,7.0,10.0,38,0.00,,---,0.00,VWS V14.01,2013-01-04 19:06:00,
2013-01-04 13:11:00,53.5,27.9,30.33,NNW,327,4.0,10.0,37,0.00,,---,0.00,VWS V14.01,2013-01-04 19:11:00,
2013-01-04 13:15:00,53.5,28.5,30.33,NNE,32,9.0,11.0,38,0.00,,---,0.00,VWS V14.01,2013-01-04 19:15:00,
2013-01-04 13:16:00,53.5,28.5,30.33,NNW,333,5.0,10.0,38,0.00,,---,0.00,VWS V14.01,2013-01-04 19:16:00,
2013-01-04 13:22:00,53.8,29.4,30.33,North,11,2.0,10.0,39,0.00,,---,0.00,VWS V14.01,2013-01-04 19:22:00,
2013-01-04 13:27:00,54.2,27.9,30.33,NE,35,0.0,10.0,36,0.00,,---,0.00,VWS V14.01,2013-01-04 19:27:00,
2013-01-04 13:30:00,54.5,29.4,30.31,NNE,24,0.0,10.0,38,0.00,,---,0.00,VWS V14.01,2013-01-04 19:30:00,
2013-01-04 13:32:00,54.7,30.9,30.31,NE,36,11.0,11.0,40,0.00,,---,0.00,VWS V14.01,2013-01-04 19:32:00,
2013-01-04 13:37:00,54.8,27.7,30.31,NE,34,5.0,12.0,35,0.00,,---,0.00,VWS V14.01,2013-01-04 19:37:00,
2013-01-04 13:42:00,54.7,27.6,30.31,NNE,17,3.0,12.0,35,0.00,,---,0.00,VWS V14.01,2013-01-04 19:42:00,
2013-01-04 13:45:00,54.8,28.4,30.30,NNE,26,4.0,12.0,36,0.00,,---,0.00,VWS V14.01,2013-01-04 19:45:00,
2013-01-04 13:47:00,55.1,29.3,30.30,NE,39,5.0,10.0,37,0.00,,---,0.00,VWS V14.01,2013-01-04 19:47:00,
2013-01-04 13:52:00,55.3,28.8,30.30,NNW,338,4.0,11.0,36,0.00,,---,0.00,VWS V14.01,2013-01-04 19:52:00,
2013-01-04 13:57:00,55.3,26.7,30.30,East,90,2.0,11.0,33,0.00,,---,0.00,VWS V14.01,2013-01-04 19:57:00,
2013-01-04 14:00:00,55.1,27.3,30.29,NNE,24,5.0,11.0,34,0.00,,---,0.00,VWS V14.01,2013-01-04 20:00:00,
2013-01-04 14:02:00,55.1,27.3,30.29,NE,53,4.0,6.0,34,0.00,,---,0.00,VWS V14.01,2013-01-04 20:02:00,
2013-01-04 14:07:00,55.1,28.0,30.29,NNE,33,9.0,11.0,35,0.00,,---,0.00,VWS V14.01,2013-01-04 20:07:00,
2013-01-04 14:12:00,55.3,26.0,30.29,ESE,111,0.0,11.0,32,0.00,,---,0.00,VWS V14.01,2013-01-04 20:12:00,
2013-01-04 14:15:00,55.3,28.1,30.30,NNE,19,4.0,11.0,35,0.00,,---,0.00,VWS V14.01,2013-01-04 20:15:00,
2013-01-04 14:17:00,55.3,28.8,30.30,NE,49,5.0,7.0,36,0.00,,---,0.00,VWS V14.01,2013-01-04 20:17:00,
2013-01-04 14:22:00,55.1,27.3,30.30,NE,39,4.0,7.0,34,0.00,,---,0.00,VWS V14.01,2013-01-04 20:22:00,
2013-01-04 14:27:00,55.4,28.9,30.30,North,5,3.0,7.0,36,0.00,,---,0.00,VWS V14.01,2013-01-04 20:27:00,
2013-01-04 14:30:00,55.6,28.4,30.30,North,360,2.0,9.0,35,0.00,,---,0.00,VWS V14.01,2013-01-04 20:30:00,
2013-01-04 14:32:00,55.6,27.7,30.30,ENE,65,2.0,4.0,34,0.00,,---,0.00,VWS V14.01,2013-01-04 20:32:00,
2013-01-04 14:37:00,55.7,26.3,30.30,ENE,59,0.0,7.0,32,0.00,,---,0.00,VWS V14.01,2013-01-04 20:37:00,
2013-01-04 14:42:00,56.0,28.0,30.30,North,11,4.0,7.0,34,0.00,,---,0.00,VWS V14.01,2013-01-04 20:42:00,
2013-01-04 14:45:00,56.2,26.0,30.30,NNW,347,5.0,7.0,31,0.00,,---,0.00,VWS V14.01,2013-01-04 20:45:00,
2013-01-04 14:48:00,56.3,26.8,30.30,North,355,2.0,9.0,32,0.00,,---,0.00,VWS V14.01,2013-01-04 20:48:00,
2013-01-04 14:53:00,56.5,26.2,30.30,NE,56,5.0,9.0,31,0.00,,---,0.00,VWS V14.01,2013-01-04 20:53:00,
2013-01-04 14:58:00,56.3,27.6,30.30,NE,38,6.0,9.0,33,0.00,,---,0.00,VWS V14.01,2013-01-04 20:58:00,
2013-01-04 15:00:00,56.3,29.0,30.30,NNE,19,4.0,9.0,35,0.00,,---,0.00,VWS V14.01,2013-01-04 21:00:00,
2013-01-04 15:03:00,56.5,28.5,30.30,North,5,2.0,7.0,34,0.00,,---,0.00,VWS V14.01,2013-01-04 21:03:00,
2013-01-04 15:08:00,56.5,26.2,30.30,NE,53,4.0,14.0,31,0.00,,---,0.00,VWS V14.01,2013-01-04 21:08:00,
2013-01-04 15:13:00,56.3,28.3,30.30,ENE,65,2.0,14.0,34,0.00,,---,0.00,VWS V14.01,2013-01-04 21:13:00,
2013-01-04 15:15:00,56.3,27.6,30.30,NE,51,0.0,14.0,33,0.00,,---,0.00,VWS V14.01,2013-01-04 21:15:00,
2013-01-04 15:18:00,56.5,27.8,30.30,NE,35,0.0,6.0,33,0.00,,---,0.00,VWS V14.01,2013-01-04 21:18:00,
2013-01-04 15:23:00,56.2,28.2,30.30,NNE,15,0.0,6.0,34,0.00,,---,0.00,VWS V14.01,2013-01-04 21:23:00,
2013-01-04 15:28:00,55.9,28.7,30.30,ENE,69,0.0,6.0,35,0.00,,---,0.00,VWS V14.01,2013-01-04 21:28:00,
2013-01-04 15:30:00,55.9,28.7,30.29,NNE,32,6.0,6.0,35,0.00,,---,0.00,VWS V14.01,2013-01-04 21:30:00,
2013-01-04 15:33:00,55.7,27.8,30.29,NNE,21,5.0,7.0,34,0.00,,---,0.00,VWS V14.01,2013-01-04 21:33:00,
2013-01-04 15:38:00,55.7,29.9,30.29,NNE,31,4.0,7.0,37,0.00,,---,0.00,VWS V14.01,2013-01-04 21:38:00,
2013-01-04 15:43:00,55.6,30.4,30.29,NNE,24,5.0,8.0,38,0.00,,---,0.00,VWS V14.01,2013-01-04 21:43:00,
2013-01-04 15:45:00,55.6,29.1,30.29,NNE,30,3.0,8.0,36,0.00,,---,0.00,VWS V14.01,2013-01-04 21:45:00,
2013-01-04 15:48:00,55.4,29.6,30.29,NE,34,5.0,6.0,37,0.00,,---,0.00,VWS V14.01,2013-01-04 21:48:00,
2013-01-04 15:53:00,55.3,30.8,30.29,NNE,13,3.0,9.0,39,0.00,,---,0.00,VWS V14.01,2013-01-04 21:53:00,
2013-01-04 15:58:00,55.1,30.0,30.30,NNE,23,3.0,9.0,38,0.00,,---,0.00,VWS V14.01,2013-01-04 21:58:00,
2013-01-04 16:00:00,55.1,30.0,30.30,North,360,7.0,10.0,38,0.00,,---,0.00,VWS V14.01,2013-01-04 22:00:00,
2013-01-04 16:03:00,55.0,29.9,30.30,NNE,15,3.0,9.0,38,0.00,,---,0.00,VWS V14.01,2013-01-04 22:03:00,
2013-01-04 16:09:00,54.8,29.0,30.30,NNE,32,5.0,9.0,37,0.00,,---,0.00,VWS V14.01,2013-01-04 22:09:00,
2013-01-04 16:14:00,54.7,29.0,30.30,NNE,21,8.0,10.0,37,0.00,,---,0.00,VWS V14.01,2013-01-04 22:14:00,
2013-01-04 16:15:00,54.7,29.0,30.30,NNE,15,8.0,10.0,37,0.00,,---,0.00,VWS V14.01,2013-01-04 22:15:00,
2013-01-04 16:19:00,54.7,30.2,30.30,North,360,6.0,13.0,39,0.00,,---,0.00,VWS V14.01,2013-01-04 22:19:00,
2013-01-04 16:24:00,54.5,29.4,30.30,NNE,15,6.0,13.0,38,0.00,,---,0.00,VWS V14.01,2013-01-04 22:24:00,
2013-01-04 16:29:00,54.4,30.6,30.30,NNE,22,2.0,13.0,40,0.00,,---,0.00,VWS V14.01,2013-01-04 22:29:00,
2013-01-04 16:30:00,54.4,30.6,30.30,NNE,14,4.0,13.0,40,0.00,,---,0.00,VWS V14.01,2013-01-04 22:30:00,
2013-01-04 16:34:00,54.1,30.3,30.30,NE,43,5.0,7.0,40,0.00,,---,0.00,VWS V14.01,2013-01-04 22:34:00,
2013-01-04 16:39:00,53.9,29.5,30.30,NNE,17,5.0,10.0,39,0.00,,---,0.00,VWS V14.01,2013-01-04 22:39:00,
2013-01-04 16:44:00,53.8,30.7,30.30,NNE,30,5.0,10.0,41,0.00,,---,0.00,VWS V14.01,2013-01-04 22:44:00,
2013-01-04 16:45:00,53.8,30.7,30.30,NNE,28,6.0,10.0,41,0.00,,---,0.00,VWS V14.01,2013-01-04 22:45:00,
2013-01-04 16:49:00,53.5,30.4,30.30,NE,46,2.0,6.0,41,0.00,,---,0.00,VWS V14.01,2013-01-04 22:49:00,
2013-01-04 16:54:00,53.2,30.7,30.30,NNE,16,3.0,7.0,42,0.00,,---,0.00,VWS V14.01,2013-01-04 22:54:00,
2013-01-04 16:59:00,53.1,30.6,30.30,NNE,19,4.0,7.0,42,0.00,,---,0.00,VWS V14.01,2013-01-04 22:59:00,
2013-01-04 17:00:00,53.1,30.6,30.30,NNE,19,4.0,7.0,42,0.00,,---,0.00,VWS V14.01,2013-01-04 23:00:00,
2013-01-04 17:04:00,52.9,31.6,30.30,North,5,4.0,6.0,44,0.00,,---,0.00,VWS V14.01,2013-01-04 23:04:00,
2013-01-04 17:09:00,52.9,31.6,30.30,NE,35,4.0,6.0,44,0.00,,---,0.00,VWS V14.01,2013-01-04 23:09:00,
2013-01-04 17:14:00,52.9,31.6,30.30,NNE,26,3.0,3.0,44,0.00,,---,0.00,VWS V14.01,2013-01-04 23:14:00,
2013-01-04 17:15:00,52.9,31.6,30.30,NNE,32,2.0,10.0,44,0.00,,---,0.00,VWS V14.01,2013-01-04 23:15:00,
2013-01-04 17:19:00,52.8,31.5,30.30,NNE,28,6.0,7.0,44,0.00,,---,0.00,VWS V14.01,2013-01-04 23:19:00,
2013-01-04 17:25:00,52.8,32.1,30.30,NNE,22,4.0,7.0,45,0.00,,---,0.00,VWS V14.01,2013-01-04 23:25:00,
2013-01-04 17:30:00,52.6,33.0,30.30,NNE,28,3.0,6.0,47,0.00,,---,0.00,VWS V14.01,2013-01-04 23:30:00,
2013-01-04 17:35:00,52.3,32.2,30.30,NE,40,5.0,13.0,46,0.00,,---,0.00,VWS V14.01,2013-01-04 23:35:00,
2013-01-04 17:40:00,52.2,31.5,30.30,North,5,2.0,13.0,45,0.00,,---,0.00,VWS V14.01,2013-01-04 23:40:00,
2013-01-04 17:45:00,52.2,32.1,30.31,North,9,4.0,4.0,46,0.00,,---,0.00,VWS V14.01,2013-01-04 23:45:00,
2013-01-04 17:50:00,52.0,31.9,30.31,NNE,28,6.0,11.0,46,0.00,,---,0.00,VWS V14.01,2013-01-04 23:50:00,
2013-01-04 17:55:00,51.7,32.1,30.31,North,11,8.0,11.0,47,0.00,,---,0.00,VWS V14.01,2013-01-04 23:55:00,
2013-01-04 18:00:00,51.4,32.4,30.31,NNE,30,5.0,5.0,48,0.00,,---,0.00,VWS V14.01,2013-01-05 00:00:00,
2013-01-04 18:05:00,51.1,32.6,30.31,NNE,20,8.0,12.0,49,0.00,,---,0.00,VWS V14.01,2013-01-05 00:05:00,
2013-01-04 18:10:00,51.0,32.5,30.31,NNE,13,3.0,12.0,49,0.00,,---,0.00,VWS V14.01,2013-01-05 00:10:00,
2013-01-04 18:15:00,50.7,32.2,30.32,North,360,7.0,7.0,49,0.00,,---,0.00,VWS V14.01,2013-01-05 00:15:00,
2013-01-04 18:20:00,50.4,32.5,30.32,NNE,28,4.0,12.0,50,0.00,,---,0.00,VWS V14.01,2013-01-05 00:20:00,
2013-01-04 18:25:00,49.9,32.5,30.32,NNE,17,3.0,12.0,51,0.00,,---,0.00,VWS V14.01,2013-01-05 00:25:00,
2013-01-04 18:30:00,49.6,32.7,30.33,NNE,16,1.0,2.0,52,0.00,,---,0.00,VWS V14.01,2013-01-05 00:30:00,
2013-01-04 18:35:00,49.2,32.8,30.33,NNE,15,3.0,6.0,53,0.00,,---,0.00,VWS V14.01,2013-01-05 00:35:00,
2013-01-04 18:40:00,49.1,32.7,30.33,NNE,15,3.0,6.0,53,0.00,,---,0.00,VWS V14.01,2013-01-05 00:40:00,
2013-01-04 18:45:00,48.8,32.9,30.33,North,5,0.0,1.0,54,0.00,,---,0.00,VWS V14.01,2013-01-05 00:45:00,
2013-01-04 18:50:00,48.5,33.5,30.33,North,5,0.0,3.0,56,0.00,,---,0.00,VWS V14.01,2013-01-05 00:50:00,
2013-01-04 18:55:00,48.2,33.7,30.33,North,5,2.0,3.0,57,0.00,,---,0.00,VWS V14.01,2013-01-05 00:55:00,
2013-01-04 19:00:00,47.7,33.2,30.33,North,360,3.0,3.0,57,0.00,,---,0.00,VWS V14.01,2013-01-05 01:00:00,
2013-01-04 19:06:00,47.4,33.8,30.33,North,360,0.0,4.0,59,0.00,,---,0.00,VWS V14.01,2013-01-05 01:06:00,
2013-01-04 19:11:00,47.1,34.4,30.33,North,360,2.0,4.0,61,0.00,,---,0.00,VWS V14.01,2013-01-05 01:11:00,
2013-01-04 19:15:00,46.8,34.1,30.34,North,360,0.0,4.0,61,0.00,,---,0.00,VWS V14.01,2013-01-05 01:15:00,
2013-01-04 19:16:00,46.7,34.4,30.34,North,360,1.0,3.0,62,0.00,,---,0.00,VWS V14.01,2013-01-05 01:16:00,
2013-01-04 19:21:00,46.5,34.2,30.34,North,360,0.0,3.0,62,0.00,,---,0.00,VWS V14.01,2013-01-05 01:21:00,
2013-01-04 19:26:00,46.4,34.1,30.34,North,360,1.0,3.0,62,0.00,,---,0.00,VWS V14.01,2013-01-05 01:26:00,
2013-01-04 19:30:00,46.2,33.9,30.34,North,360,0.0,3.0,62,0.00,,---,0.00,VWS V14.01,2013-01-05 01:30:00,
2013-01-04 19:31:00,46.2,33.9,30.34,North,360,1.0,3.0,62,0.00,,---,0.00,VWS V14.01,2013-01-05 01:31:00,
2013-01-04 19:36:00,46.1,34.2,30.34,North,360,2.0,3.0,63,0.00,,---,0.00,VWS V14.01,2013-01-05 01:36:00,
2013-01-04 19:41:00,46.0,34.1,30.34,North,5,2.0,4.0,63,0.00,,---,0.00,VWS V14.01,2013-01-05 01:41:00,
2013-01-04 19:45:00,46.0,34.1,30.34,North,5,2.0,4.0,63,0.00,,---,0.00,VWS V14.01,2013-01-05 01:45:00,
2013-01-04 19:46:00,45.8,34.3,30.34,North,5,1.0,4.0,64,0.00,,---,0.00,VWS V14.01,2013-01-05 01:46:00,
2013-01-04 19:51:00,45.7,34.6,30.34,North,5,0.0,4.0,65,0.00,,---,0.00,VWS V14.01,2013-01-05 01:51:00,
2013-01-04 19:56:00,45.7,35.0,30.34,NNW,348,0.0,4.0,66,0.00,,---,0.00,VWS V14.01,2013-01-05 01:56:00,
2013-01-04 20:00:00,45.5,34.8,30.34,NNW,348,1.0,4.0,66,0.00,,---,0.00,VWS V14.01,2013-01-05 02:00:00,
2013-01-04 20:01:00,45.5,34.8,30.34,NNW,348,1.0,3.0,66,0.00,,---,0.00,VWS V14.01,2013-01-05 02:01:00,
2013-01-04 20:06:00,45.4,34.7,30.34,NNW,348,0.0,3.0,66,0.00,,---,0.00,VWS V14.01,2013-01-05 02:06:00,
2013-01-04 20:12:00,45.4,34.3,30.34,NNW,348,0.0,3.0,65,0.00,,---,0.00,VWS V14.01,2013-01-05 02:12:00,
2013-01-04 20:15:00,45.4,34.7,30.34,NNW,348,2.0,3.0,66,0.00,,---,0.00,VWS V14.01,2013-01-05 02:15:00,
2013-01-04 20:17:00,45.2,34.5,30.34,NNW,348,1.0,3.0,66,0.00,,---,0.00,VWS V14.01,2013-01-05 02:17:00,
2013-01-04 20:22:00,45.2,34.9,30.34,NNW,348,3.0,4.0,67,0.00,,---,0.00,VWS V14.01,2013-01-05 02:22:00,
2013-01-04 20:27:00,45.1,35.5,30.34,NNW,348,2.0,4.0,69,0.00,,---,0.00,VWS V14.01,2013-01-05 02:27:00,
2013-01-04 20:30:00,44.9,35.7,30.33,NNW,348,0.0,4.0,70,0.00,,---,0.00,VWS V14.01,2013-01-05 02:30:00,
2013-01-04 20:32:00,44.8,35.6,30.33,NE,39,2.0,3.0,70,0.00,,---,0.00,VWS V14.01,2013-01-05 02:32:00,
2013-01-04 20:37:00,44.6,35.1,30.33,NNE,29,0.0,3.0,69,0.00,,---,0.00,VWS V14.01,2013-01-05 02:37:00,
2013-01-04 20:42:00,44.6,35.4,30.33,NNE,29,0.0,3.0,70,0.00,,---,0.00,VWS V14.01,2013-01-05 02:42:00,
2013-01-04 20:45:00,44.6,35.4,30.33,NNE,29,0.0,3.0,70,0.00,,---,0.00,VWS V14.01,2013-01-05 02:45:00,
2013-01-04 20:47:00,44.6,35.1,30.33,NNE,29,0.0,2.0,69,0.00,,---,0.00,VWS V14.01,2013-01-05 02:47:00,
2013-01-04 20:52:00,44.5,35.3,30.33,NNE,29,1.0,2.0,70,0.00,,---,0.00,VWS V14.01,2013-01-05 02:52:00,
2013-01-04 20:57:00,44.3,35.2,30.33,NNE,29,0.0,3.0,70,0.00,,---,0.00,VWS V14.01,2013-01-05 02:57:00,
2013-01-04 21:00:00,44.3,35.2,30.33,NNE,29,0.0,3.0,70,0.00,,---,0.00,VWS V14.01,2013-01-05 03:00:00,
2013-01-04 21:02:00,44.3,35.5,30.33,NNE,29,2.0,4.0,71,0.00,,---,0.00,VWS V14.01,2013-01-05 03:02:00,
2013-01-04 21:07:00,44.3,35.9,30.33,NNE,29,0.0,4.0,72,0.00,,---,0.00,VWS V14.01,2013-01-05 03:07:00,
2013-01-04 21:13:00,44.3,35.5,30.33,NNE,29,0.0,4.0,71,0.00,,---,0.00,VWS V14.01,2013-01-05 03:13:00,
2013-01-04 21:15:00,44.5,36.0,30.33,NNE,29,0.0,4.0,72,0.00,,---,0.00,VWS V14.01,2013-01-05 03:15:00,
2013-01-04 21:18:00,44.5,36.0,30.33,NNE,29,0.0,1.0,72,0.00,,---,0.00,VWS V14.01,2013-01-05 03:18:00,
2013-01-04 21:23:00,44.5,36.0,30.33,NNE,29,0.0,1.0,72,0.00,,---,0.00,VWS V14.01,2013-01-05 03:23:00,
2013-01-04 21:28:00,44.5,36.0,30.33,NNE,29,3.0,3.0,72,0.00,,---,0.00,VWS V14.01,2013-01-05 03:28:00,
2013-01-04 21:30:00,44.5,36.0,30.33,NNE,29,2.0,3.0,72,0.00,,---,0.00,VWS V14.01,2013-01-05 03:30:00,
2013-01-04 21:33:00,44.5,35.7,30.33,NNE,29,3.0,3.0,71,0.00,,---,0.00,VWS V14.01,2013-01-05 03:33:00,
2013-01-04 21:38:00,44.3,35.9,30.33,NNE,29,3.0,3.0,72,0.00,,---,0.00,VWS V14.01,2013-01-05 03:38:00,
2013-01-04 21:43:00,44.2,35.8,30.33,NNE,17,2.0,4.0,72,0.00,,---,0.00,VWS V14.01,2013-01-05 03:43:00,
2013-01-04 21:45:00,44.1,35.7,30.33,NNE,17,2.0,4.0,72,0.00,,---,0.00,VWS V14.01,2013-01-05 03:45:00,
2013-01-04 21:48:00,44.1,36.0,30.33,NNE,17,1.0,3.0,73,0.00,,---,0.00,VWS V14.01,2013-01-05 03:48:00,
2013-01-04 21:53:00,43.9,35.8,30.33,NNE,17,1.0,3.0,73,0.00,,---,0.00,VWS V14.01,2013-01-05 03:53:00,
2013-01-04 21:58:00,43.9,35.8,30.33,NNE,13,0.0,4.0,73,0.00,,---,0.00,VWS V14.01,2013-01-05 03:58:00,
2013-01-04 22:00:00,43.9,35.8,30.33,NNE,13,0.0,4.0,73,0.00,,---,0.00,VWS V14.01,2013-01-05 04:00:00,
2013-01-04 22:03:00,43.8,35.4,30.33,NNE,25,2.0,6.0,72,0.00,,---,0.00,VWS V14.01,2013-01-05 04:03:00,
2013-01-04 22:08:00,43.8,35.0,30.33,NNE,16,2.0,6.0,71,0.00,,---,0.00,VWS V14.01,2013-01-05 04:08:00,
2013-01-04 22:13:00,43.8,35.4,30.33,NNE,14,0.0,6.0,72,0.00,,---,0.00,VWS V14.01,2013-01-05 04:13:00,
2013-01-04 22:15:00,43.6,35.2,30.33,NNE,14,0.0,6.0,72,0.00,,---,0.00,VWS V14.01,2013-01-05 04:15:00,
2013-01-04 22:19:00,43.6,35.2,30.33,NNE,14,1.0,3.0,72,0.00,,---,0.00,VWS V14.01,2013-01-05 04:19:00,
2013-01-04 22:24:00,43.3,34.9,30.33,NNE,31,2.0,4.0,72,0.00,,---,0.00,VWS V14.01,2013-01-05 04:24:00,
2013-01-04 22:29:00,43.2,35.1,30.32,NNE,30,0.0,4.0,73,0.00,,---,0.00,VWS V14.01,2013-01-05 04:29:00,
2013-01-04 22:30:00,43.2,35.1,30.32,NNE,31,3.0,4.0,73,0.00,,---,0.00,VWS V14.01,2013-01-05 04:30:00,
2013-01-04 22:34:00,43.1,35.0,30.32,NE,34,0.0,5.0,73,0.00,,---,0.00,VWS V14.01,2013-01-05 04:34:00,
2013-01-04 22:39:00,42.8,34.8,30.32,NE,51,0.0,5.0,73,0.00,,---,0.00,VWS V14.01,2013-01-05 04:39:00,
2013-01-04 22:44:00,42.5,34.5,30.31,ENE,71,2.0,5.0,73,0.00,,---,0.00,VWS V14.01,2013-01-05 04:44:00,
2013-01-04 22:45:00,42.5,34.5,30.31,ENE,71,0.0,5.0,73,0.00,,---,0.00,VWS V14.01,2013-01-05 04:45:00,
2013-01-04 22:49:00,42.3,34.3,30.31,ENE,63,0.0,4.0,73,0.00,,---,0.00,VWS V14.01,2013-01-05 04:49:00,
2013-01-04 22:54:00,42.3,34.3,30.31,NNE,24,3.0,5.0,73,0.00,,---,0.00,VWS V14.01,2013-01-05 04:54:00,
2013-01-04 22:59:00,42.5,34.5,30.31,NNE,18,2.0,3.0,73,0.00,,---,0.00,VWS V14.01,2013-01-05 04:59:00,
2013-01-04 23:00:00,42.5,34.5,30.31,NNE,18,1.0,3.0,73,0.00,,---,0.00,VWS V14.01,2013-01-05 05:00:00,
2013-01-04 23:01:00,42.5,34.5,30.31,NNE,20,3.0,3.0,73,0.00,,---,0.00,VWS V14.01,2013-01-05 05:01:00,
2013-01-04 23:06:00,42.5,34.5,30.31,NNE,31,2.0,4.0,73,0.00,,---,0.00,VWS V14.01,2013-01-05 05:06:00,
2013-01-04 23:11:00,42.3,34.3,30.31,NNE,32,0.0,4.0,73,0.00,,---,0.00,VWS V14.01,2013-01-05 05:11:00,
2013-01-04 23:15:00,42.2,34.2,30.30,NNE,32,0.0,4.0,73,0.00,,---,0.00,VWS V14.01,2013-01-05 05:15:00,
2013-01-04 23:16:00,42.1,34.1,30.30,NNE,32,0.0,2.0,73,0.00,,---,0.00,VWS V14.01,2013-01-05 05:16:00,
2013-01-04 23:21:00,41.9,33.9,30.30,ENE,66,0.0,3.0,73,0.00,,---,0.00,VWS V14.01,2013-01-05 05:21:00,
2013-01-04 23:26:00,41.8,34.1,30.30,North,5,0.0,4.0,74,0.00,,---,0.00,VWS V14.01,2013-01-05 05:26:00,
2013-01-04 23:30:00,41.8,34.1,30.30,NNE,21,1.0,5.0,74,0.00,,---,0.00,VWS V14.01,2013-01-05 05:30:00,
2013-01-04 23:31:00,41.8,34.1,30.30,NNE,21,0.0,3.0,74,0.00,,---,0.00,VWS V14.01,2013-01-05 05:31:00,
2013-01-04 23:36:00,41.6,33.9,30.30,NNE,22,3.0,3.0,74,0.00,,---,0.00,VWS V14.01,2013-01-05 05:36:00,
2013-01-04 23:42:00,41.5,33.8,30.30,NE,50,0.0,4.0,74,0.00,,---,0.00,VWS V14.01,2013-01-05 05:42:00,
2013-01-04 23:45:00,41.3,34.0,30.30,NNE,19,3.0,5.0,75,0.00,,---,0.00,VWS V14.01,2013-01-05 05:45:00,
2013-01-04 23:47:00,41.3,34.0,30.30,ENE,69,1.0,4.0,75,0.00,,---,0.00,VWS V14.01,2013-01-05 05:47:00,
2013-01-04 23:52:00,41.3,34.0,30.30,NE,49,0.0,5.0,75,0.00,,---,0.00,VWS V14.01,2013-01-05 05:52:00,
2013-01-04 23:57:00,41.3,34.0,30.30,ENE,68,2.0,5.0,75,0.00,,---,0.00,VWS V14.01,2013-01-05 05:57:00,